Location: Meanaryar
(48.4161°N, 4.7315°W)
Time: 00:08:18
(UTC+00:00)

Cosmos 1842 - Pass Details

Date: 18 June 2021
Orbit: 519 x 537 km, 82.5° (Epoch: 01 August)

Event Time Altitude Azimuth Distance (km) Brightness Sun altitude
Rises 21:06:04 0° 212° (SSW) 2,676 6.7 -6.1°
Reaches altitude 10° 21:08:22 10° 223° (SW) 1,792 5.9 -6.3°
Maximum altitude 21:11:55 32° 287° (WNW) 949 5.3 -6.7°
Drops below altitude 10° 21:15:31 10° 351° (N) 1,808 6.9 -7.1°
Sets 21:17:51 0° 2° (N) 2,705 7.6 -7.4°
